TimeCST,TemperatureF,Dew PointF,Humidity,Sea Level PressureIn,VisibilityMPH,Wind Direction,Wind SpeedMPH,Gust SpeedMPH,PrecipitationIn,Events,Conditions,WindDirDegrees,DateUTC
12:53 AM,48.0,42.1,80,30.18,10.0,NNW,5.8,-,N/A,,Overcast,330,2013-01-03 06:53:00
1:53 AM,46.9,42.1,83,30.19,10.0,NW,10.4,-,0.00,,Overcast,320,2013-01-03 07:53:00
2:53 AM,45.0,42.1,90,30.19,10.0,North,9.2,-,0.00,Rain,Light Rain,350,2013-01-03 08:53:00
3:53 AM,45.0,41.0,86,30.19,10.0,North,5.8,-,0.00,,Overcast,360,2013-01-03 09:53:00
4:53 AM,44.1,41.0,89,30.19,10.0,North,9.2,-,0.01,,Overcast,360,2013-01-03 10:53:00
5:53 AM,43.0,41.0,93,30.21,9.0,North,9.2,-,0.00,Rain,Light Rain,360,2013-01-03 11:53:00
6:12 AM,42.8,41.0,93,30.22,10.0,NNW,6.9,-,0.00,Rain,Light Rain,340,2013-01-03 12:12:00
6:14 AM,42.8,41.0,93,30.22,9.0,NNW,8.1,-,0.00,Rain,Light Rain,340,2013-01-03 12:14:00
6:42 AM,42.8,41.0,93,30.22,8.0,North,6.9,-,0.00,Rain,Light Rain,350,2013-01-03 12:42:00
6:53 AM,43.0,41.0,93,30.23,8.0,North,3.5,-,0.00,Rain,Light Rain,350,2013-01-03 12:53:00
7:53 AM,43.0,41.0,93,30.25,9.0,North,5.8,-,0.00,Rain,Light Rain,350,2013-01-03 13:53:00
8:49 AM,42.8,41.0,93,30.28,10.0,NNW,6.9,-,0.00,Rain,Light Rain,340,2013-01-03 14:49:00
8:53 AM,44.1,41.0,89,30.28,6.0,NNW,6.9,-,0.00,Rain,Light Rain,330,2013-01-03 14:53:00
9:53 AM,43.0,41.0,93,30.29,5.0,NNW,12.7,-,0.05,Rain,Light Rain,340,2013-01-03 15:53:00
10:53 AM,44.1,42.1,93,30.25,6.0,ENE,3.5,-,0.03,Rain,Light Rain,60,2013-01-03 16:53:00
11:53 AM,45.0,42.1,90,30.24,8.0,NNW,9.2,-,0.01,,Overcast,340,2013-01-03 17:53:00
12:53 PM,46.0,42.1,86,30.23,10.0,NNW,8.1,-,0.00,,Overcast,330,2013-01-03 18:53:00
1:04 PM,46.4,41.0,81,30.23,10.0,NNW,9.2,-,N/A,,Overcast,330,2013-01-03 19:04:00
1:53 PM,46.9,41.0,80,30.23,10.0,North,5.8,-,N/A,,Overcast,350,2013-01-03 19:53:00
2:53 PM,46.0,41.0,83,30.24,8.0,North,6.9,-,N/A,,Overcast,350,2013-01-03 20:53:00
3:20 PM,46.4,41.0,81,30.26,8.0,NNW,10.4,-,N/A,,Overcast,330,2013-01-03 21:20:00
3:49 PM,46.4,39.2,76,30.27,9.0,North,8.1,-,N/A,,Scattered Clouds,350,2013-01-03 21:49:00
3:53 PM,46.0,39.9,79,30.27,8.0,North,9.2,-,N/A,,Partly Cloudy,350,2013-01-03 21:53:00
4:53 PM,44.1,39.0,82,30.29,9.0,North,6.9,-,N/A,,Clear,360,2013-01-03 22:53:00
5:53 PM,43.0,37.9,82,30.31,10.0,North,8.1,-,N/A,,Clear,350,2013-01-03 23:53:00
6:53 PM,42.1,37.9,85,30.32,9.0,North,4.6,-,N/A,,Clear,350,2013-01-04 00:53:00
7:53 PM,39.9,37.0,89,30.33,8.0,NNW,4.6,-,N/A,,Clear,340,2013-01-04 01:53:00
8:53 PM,39.0,37.0,93,30.33,8.0,North,6.9,-,N/A,,Clear,350,2013-01-04 02:53:00
9:53 PM,37.9,35.1,89,30.35,10.0,North,6.9,-,N/A,,Clear,350,2013-01-04 03:53:00
10:53 PM,37.9,33.1,83,30.36,10.0,North,8.1,-,N/A,,Clear,350,2013-01-04 04:53:00
11:53 PM,36.0,32.0,86,30.34,10.0,North,6.9,-,N/A,,Clear,360,2013-01-04 05:53:00